Home > Weather > Beckum > Past weeks

Flag for Germany Past Weather in Beckum, North Rhine-Westphalia, Germany — Yesterday and Last 2 Weeks

Now
72 °F

Scattered clouds.


Feels Like: 74 °F
Forecast: 60 / 85 °F
Wind: 3 mph from North

Location: Dortmund / Wickede

Current Time: Jul 23, 2016 at 3:18:30 PM

Latest Report: Jul 23, 2016 at 2:50 PM


Visibility: N/A

Pressure: 30.09 "Hg

Humidity: 73%

Dew Point: 63 °F

Location of BeckumLocation

Past Weather in Beckum — Graph

°F

Beckum Temperature Yesterday

Maximum temperature yesterday: 77 °F (at 11:20 AM)
Minimum temperature yesterday: 64 °F (at 5:50 AM)
Average temperature yesterday: 72 °F

High & Low Weather Summary for the Past Weeks

 TemperatureHumidityPressure
High91 °F (Jul 20, 3:20 PM)88% (Jul 9, 5:50 AM)30.30 "Hg (Jul 9, 5:50 AM)
Low48 °F (Jul 14, 5:20 AM)20% (Jul 20, 5:20 PM)29.77 "Hg (Jul 10, 7:20 PM)
Average69 °F59%30.04 "Hg
* Reported Jul 8 1:20 PM — Jul 23 1:50 PM, Beckum, Weather by CustomWeather, © 2016

Note: Actual official high and low records may vary slightly from our data, if they occured in-between our weather recording intervals... More about our weather records

Advertising

Beckum Weather History for the Previous 24 Hours

Scroll right to see more
 ConditionsComfort  
Time TempWeatherWind HumidityBarometerVisibility
1:50 PM
Sat, Jul 23
70 °FScattered clouds.5 mph73%30.09 "HgN/A
1:20 PM70 °FScattered clouds.3 mph73%30.09 "HgN/A
12:50 PM70 °FSprinkles. Scattered clouds.3 mph73%30.09 "HgN/A
12:20 PM70 °FScattered clouds.6 mph73%30.09 "HgN/A
11:50 AM70 °FBroken clouds.5 mph73%30.09 "Hg6 mi
11:20 AM68 °FPartly sunny.7 mph78%30.07 "HgN/A
10:50 AM70 °FPartly sunny.6 mph73%30.07 "Hg4 mi
10:20 AM70 °FClear.3 mph73%30.07 "Hg4 mi
9:50 AM68 °FClear.6 mph78%30.07 "Hg4 mi
9:20 AM68 °FFog.5 mph78%30.04 "Hg3 mi
8:50 AM68 °FFog.5 mph78%30.04 "Hg3 mi
8:20 AM66 °FFog.2 mph83%30.04 "Hg2 mi
7:50 AM64 °FFog.2 mph88%30.04 "Hg1 mi
7:20 AM64 °FFog.No wind88%30.04 "Hg1 mi
6:50 AM63 °FFog.1 mph88%30.04 "Hg2 mi
6:20 AM63 °FFog.3 mph88%30.04 "Hg2 mi
5:50 AM63 °FFog.1 mph88%30.04 "Hg2 mi
5:20 AM63 °FFog.1 mph88%30.04 "Hg2 mi
9:50 PM
Fri, Jul 22
68 °FSunny.6 mph69%30.04 "Hg10 mi
9:20 PM70 °FSunny.6 mph64%30.04 "Hg10 mi
8:50 PM70 °FSunny.5 mph64%30.04 "Hg10 mi
8:20 PM70 °FSunny.6 mph64%30.04 "Hg10 mi
7:50 PM72 °FSunny.8 mph65%30.01 "Hg10 mi
7:20 PM72 °FPassing clouds.12 mph61%30.01 "HgN/A
6:50 PM73 °FPassing clouds.8 mph57%30.01 "HgN/A
6:20 PM75 °FPassing clouds.8 mph54%30.01 "HgN/A
5:50 PM75 °FPassing clouds.8 mph57%30.01 "HgN/A
5:20 PM77 °FPassing clouds.6 mph54%30.01 "HgN/A
4:50 PM75 °FPassing clouds.9 mph57%30.01 "HgN/A
4:20 PM75 °FPassing clouds.9 mph57%30.04 "HgN/A
3:50 PM73 °FPartly sunny.8 mph61%30.04 "HgN/A
3:20 PM73 °FPartly sunny.12 mph61%30.04 "HgN/A
Weather by CustomWeather, © 2016

See weather overviewHow to use our weather pages